Location: Evergreen Manor
(41.4083°N, 81.4939°W)
Time: 18:23:53
(UTC+00:00)

STARLINK 1038 - Pass Details

Date: 11 December 2019
Orbit: 548 x 551 km, 53.0° (Epoch: 19 January)

Event Time Altitude Azimuth Distance (km) Brightness Sun altitude
Exits shadow 11:28:21 21° 286° (WNW) 1,286 4.8 -13.3°
Maximum altitude 11:30:45 43° 225° (SW) 797 4.2 -12.9°
Drops below altitude 10° 11:34:46 10° 154° (SSE) 1,855 7.0 -12.2°
Sets 11:37:05 0° 147° (SSE) 2,748 8.1 -11.8°
